Webcams

EDPO Webcam Blick Richtung Osten (local time)

Webcam-2

Info zum Bild:

  • Blick zum Kloster Mariahilf, Entfernung ca. 3km
  • Blick zur Kirche St. Johannes, Entfernung ca. 1km
  • Blick zu den beiden Windrädern, Entfernung ca. 6km

EDPO Webcam Blick Richtung Westen (local time)

Webcam-1

Info zum Bild:

  • Blick zum Tyrolsberg, Entfernung ca. 3,5km

Dillberg Webcam Blick Richtung Osten zu EDPO (local time)

Webcam-1

Info zum Bild:

  • Blick vom Dillberg Richtung Neumarkt, Höhe 555ft über EDPO

Dillberg Webcam Blick Richtung Westen zum Sender (local time)

Webcam-1

Info zum Bild:

  • Blick vom Dillberg Sender, Höhe bis Spitze 1322ft über EDPO
  • 600m Entfernung / Sichtweite von CAM zum Dillberg Sender

Sparkasse Webcam Blick Richtung Nord-West über Neumarkt


Snapshot

Info zum Bild:

Nürnberger Fernsehturm (Rundum CAM)


METAR Informationen der nächstgelegenen Flughäfen


EDDN / Flughafen Nürnberg „Albrecht Dürer“

EDDN 041050Z 22012KT 190V260 CAVOK 24/11 Q1020 NOSIG

ETIC / Fliegerhorst Grafenwöhr AAF

ETIC 041056Z AUTO 27007G14KT 9999 OVC050 22/11 A3010 RMK AO2 SLP188 T02190107 $

ETIH / Fliegerhorst Hohenfels AAF

ETIH 041056Z AUTO 25009KT 9999 BKN060 22/10 A3014 RMK AO2 SLP199 T02210099 $